Location: Cutler
(25.6150°N, 80.3110°W)
Time: 17:30:09
(UTC-05:00)

N. Korean satellite - Pass Details

Date: 17 November 2017
Orbit: 460 x 514 km, 97.2° (Epoch: 22 November)

Event Time Altitude Azimuth Distance (km) Brightness Sun altitude
Rises 19:05:33 0° 192° (SSW) 2,469 10.5 -21.1°
Reaches altitude 10° 19:07:49 10° 206° (SSW) 1,601 9.7 -21.6°
Maximum altitude 19:10:40 24° 263° (W) 993 8.9 -22.2°
Drops below altitude 10° 19:13:33 10° 319° (NW) 1,621 9.6 -22.9°
Sets 19:15:53 0° 333° (NNW) 2,509 10.4 -23.4°
